Theta_e
348 346 344 344 341 338 337 338 337 336 335 335 334 335 336 336 337 337 339 339 339 339 339 340 340 340 339 338 338 339 337 338 338 331 332 330 330 329 328 327 327 327 327
346 346 343 344 340 338 338 337 336 335 334 333 333 333 333 332 332 333 333 333 335 335 335 337 339 340 340 340 340 340 340 339 338 331 327 325 325 325 324 323 322 322 320
344 346 342 343 339 337 337 336 336 335 334 332 332 331 330 329 329 330 330 331 331 331 331 332 335 337 337 337 338 338 338 339 338 331 326 324 321 321 320 319 319 319 318
343 345 342 341 339 338 337 337 335 334 333 332 331 330 329 326 325 326 327 327 329 330 329 329 330 332 333 333 334 334 336 335 334 329 325 323 321 319 320 318 317 317 317
346 346 343 341 339 338 337 337 336 334 332 332 331 330 330 329 326 325 324 324 324 324 325 327 328 330 331 331 331 331 333 333 331 328 326 325 322 319 319 318 315 315 314
347 346 344 341 340 338 337 336 334 332 331 331 330 330 330 330 330 329 326 325 324 322 318 321 325 326 327 328 328 327 329 330 329 327 325 324 323 322 321 318 315 315 314
346 346 344 341 339 338 336 336 334 332 329 330 329 329 329 328 327 327 328 327 323 321 317 317 321 322 324 325 325 325 324 324 324 325 324 324 324 322 320 318 317 319 316
345 346 343 340 339 338 336 335 334 331 329 328 328 327 327 326 324 324 324 324 321 319 319 318 316 314 313 314 319 322 322 322 322 322 322 321 322 321 321 320 319 317 315
344 344 341 334 339 339 336 334 334 332 327 326 326 325 325 326 325 323 322 321 319 318 319 321 319 318 316 315 313 312 313 313 314 312 309 307 311 318 321 319 317 316 315
338 344 343 341 339 339 336 334 333 331 327 324 323 323 323 323 325 324 321 320 317 315 315 317 319 320 318 318 317 313 311 310 309 309 308 304 304 310 316 316 316 316 317
333 336 339 341 341 341 337 334 333 330 327 325 323 320 320 321 324 325 321 319 318 316 315 314 314 315 317 317 313 313 312 312 313 312 308 306 306 306 306 308 309 314 316
333 334 335 338 340 338 336 334 332 330 327 323 321 319 318 319 320 321 323 320 317 316 313 311 310 307 306 306 305 307 308 307 307 309 310 306 305 307 307 307 307 305 306
330 331 332 334 336 335 335 333 331 328 325 322 321 318 317 316 316 317 321 319 315 311 306 304 305 305 306 304 305 305 306 307 307 306 305 304 305 305 305 305 307 308 306
327 328 329 329 331 333 334 333 330 327 323 320 318 316 315 315 315 316 315 313 311 308 306 305 304 305 306 306 306 305 304 304 304 304 304 304 305 304 303 303 303 303 308
324 324 325 326 327 327 327 325 326 324 323 322 319 317 315 313 312 310 309 308 306 305 305 306 307 307 307 306 307 305 304 304 304 303 303 302 302 302 302 303 302 302 303
321 321 322 323 323 324 323 320 321 321 320 319 318 317 316 314 312 311 311 309 308 307 307 308 309 308 308 308 308 306 304 304 303 303 302 302 301 302 302 302 302 302 303
321 321 320 320 321 320 319 319 316 315 315 315 315 315 315 315 313 312 310 310 309 306 306 306 307 306 305 305 305 305 304 303 302 303 302 302 302 302 302 301 302 301 301
319 319 320 319 319 318 317 316 316 316 314 313 313 312 312 311 309 306 304 305 304 304 306 308 307 306 305 305 305 305 304 304 303 303 303 302 302 302 302 302 301 301 300
319 318 318 317 316 314 312 310 311 310 309 308 308 307 305 303 302 301 300 302 305 307 306 307 308 307 306 306 305 305 304 304 304 303 303 303 303 301 302 302 302 301 301
318 316 315 314 314 312 310 308 307 305 305 305 303 302 302 301 300 300 300 303 305 305 306 306 307 307 307 306 306 305 305 305 304 304 303 303 302 302 302 302 302 302 301
320 319 319 318 316 314 312 311 310 309 308 307 305 303 303 303 303 303 303 304 305 305 305 306 306 306 306 305 305 305 305 303 304 304 304 303 302 302 302 302 303 302 301
322 322 321 320 320 319 318 316 313 312 310 309 309 307 306 304 303 305 306 305 304 304 306 306 306 305 304 304 304 304 304 303 303 303 303 303 302 302 302 302 303 302 302
312 311 310 311 312 312 314 315 315 314 312 312 311 310 309 307 306 305 305 305 305 307 306 306 306 304 303 303 304 304 304 303 303 303 303 302 301 301 302 302 302 301 301
310 310 311 312 311 311 313 314 314 314 314 314 312 310 310 309 307 306 306 307 307 307 305 305 304 305 305 305 305 305 305 305 305 305 305 305 305 303 301 301 301 301 301
314 312 313 313 313 314 314 314 313 313 313 313 312 309 307 306 307 310 309 308 308 307 306 306 306 305 304 302 301 300 299 300 301 300 301 301 302 304 304 303 302 300 300
314 314 314 313 313 313 313 313 313 313 313 311 308 307 307 309 310 309 308 307 306 305 305 303 302 301 299 296 294 292 293 294 292 291 291 294 297 298 298 299 299 300 300
Wind_Speed
19 17 13 12 10 8 9 7 7 9 7 10 12 12 11 11 9 10 13 13 13 11 8 6 6 9 12 11 11 11 12 11 7 4 9 10 7 4 5 5 6 7 8
13 17 14 13 12 11 9 7 6 11 10 12 12 16 15 14 14 15 15 14 13 15 15 16 14 10 10 8 8 7 11 15 10 11 12 6 10 9 10 10 10 11 12
12 14 13 14 12 10 8 6 6 8 9 12 14 17 17 14 13 14 15 15 17 19 18 15 14 14 15 12 10 7 6 9 14 15 9 11 12 11 11 10 9 9 10
13 14 14 17 13 12 9 7 5 6 8 11 13 15 16 16 16 16 17 18 19 19 18 18 17 15 14 13 12 10 9 13 14 17 14 12 10 9 8 9 8 9 10
17 20 18 17 14 12 9 8 6 6 7 8 10 11 10 10 13 15 17 19 20 21 21 20 18 15 13 12 10 11 11 14 14 17 13 10 10 10 7 5 9 10 9
20 23 20 17 16 15 13 12 10 9 7 8 8 9 9 8 6 7 10 14 14 16 17 16 17 18 16 14 14 15 13 12 12 11 9 8 7 5 7 11 12 4 2
18 20 19 18 19 16 15 15 13 11 10 10 9 9 9 10 9 7 6 8 12 13 15 16 16 15 14 14 15 15 15 14 11 9 11 7 4 3 8 10 6 1 2
13 13 10 10 15 17 18 16 14 12 11 12 11 9 9 9 8 7 7 9 10 11 11 11 13 15 15 13 13 15 16 15 13 12 11 10 7 5 4 5 5 6 9
7 8 12 14 24 27 26 20 18 16 14 14 12 9 8 8 6 5 4 8 9 9 9 10 7 9 11 11 13 16 16 17 14 14 13 11 7 4 5 5 11 13 4
8 10 19 22 23 29 26 23 18 16 15 14 13 9 7 6 5 5 3 6 8 8 8 8 9 6 5 6 8 9 12 11 10 9 9 10 9 6 1 4 7 11 3
7 11 12 14 26 29 28 24 21 20 17 14 12 10 7 5 4 9 6 5 6 7 6 7 7 7 7 6 6 6 5 5 6 4 6 7 7 7 7 6 5 6 10
4 6 6 5 18 26 29 24 23 21 19 14 11 10 8 7 6 6 9 6 4 4 7 8 9 10 11 10 10 9 2 4 4 4 8 3 2 3 5 6 7 8 5
4 4 1 4 15 21 25 25 22 20 18 15 10 9 8 7 7 5 7 9 5 7 9 9 9 9 9 10 9 9 9 10 10 8 5 2 0 0 1 3 3 2 2
5 4 4 7 13 19 22 21 21 20 17 13 12 11 9 7 6 7 8 7 6 8 8 7 7 6 6 6 6 7 8 8 7 6 3 2 2 1 1 3 4 5 5
7 7 7 10 13 14 15 13 15 14 12 12 10 11 11 9 8 7 7 6 7 8 7 6 4 3 2 1 2 2 2 3 3 2 1 1 1 1 2 3 3 4 4
11 10 10 12 14 16 17 16 12 10 8 7 9 8 10 9 9 8 6 5 6 6 3 1 2 3 2 3 5 4 3 2 1 3 3 2 2 4 4 4 4 3 4
14 13 13 13 15 16 16 17 18 13 12 10 8 8 6 7 6 7 6 5 5 5 3 2 5 5 4 4 3 4 4 3 4 5 4 4 4 4 3 6 6 4 4
11 13 14 15 15 15 14 14 14 14 12 9 8 7 7 7 7 6 5 5 6 6 3 2 4 6 7 6 5 3 3 1 4 5 5 6 7 7 5 6 6 7 6
13 14 14 15 15 15 14 13 13 12 10 10 9 9 8 7 5 5 4 6 6 4 2 4 6 8 9 8 7 6 5 5 5 5 7 8 9 7 7 7 8 7 7
16 16 15 14 14 13 13 13 12 11 9 8 8 8 7 6 5 6 8 6 5 2 2 2 4 6 7 9 9 8 8 9 10 9 8 9 8 8 9 11 12 12 12
15 15 14 14 14 13 12 12 11 10 9 8 6 6 7 6 5 6 6 5 5 6 6 6 5 6 6 6 8 9 10 11 12 12 11 9 8 10 12 16 15 13 14
16 18 21 20 19 19 18 17 15 14 14 14 13 11 9 10 9 8 7 7 8 11 13 12 11 9 8 7 7 9 11 12 13 12 13 14 14 14 15 15 14 15 16
16 18 16 17 19 19 18 18 19 20 18 17 18 16 16 13 9 9 9 8 8 9 9 9 10 9 8 6 4 5 7 8 9 11 15 16 18 20 19 18 17 18 18
18 18 14 15 16 17 15 13 10 11 9 9 10 10 14 16 11 11 13 12 8 5 4 5 7 6 4 1 2 4 7 10 12 14 15 16 16 15 15 19 22 21 18
16 15 15 15 14 12 10 8 9 5 5 6 7 6 9 9 8 5 7 10 10 10 9 7 6 3 2 4 6 8 11 14 16 16 15 14 14 15 17 17 17 17 18
16 18 17 15 12 9 8 7 5 5 8 10 12 12 13 13 12 12 12 12 10 8 7 5 4 3 5 7 9 12 16 18 18 18 15 14 14 13 13 13 14 15 16
Wind_Direction
166 161 154 155 140 120 124 114 81 82 67 55 51 61 61 53 54 67 74 76 77 81 93 102 118 157 175 191 207 213 208 194 130 110 144 153 131 132 115 119 104 90 72
185 159 154 163 152 134 139 117 103 87 76 69 68 69 68 65 64 71 79 78 84 79 80 88 90 123 141 154 157 174 202 201 164 136 144 139 132 134 131 122 104 88 72
229 168 164 177 166 152 140 120 114 94 86 84 78 76 74 69 68 74 79 81 80 78 75 80 83 89 88 90 96 111 134 172 189 158 139 151 140 146 135 118 102 94 88
215 185 179 182 175 165 153 139 124 105 98 93 90 85 84 80 78 80 83 84 83 83 81 78 78 79 82 82 83 85 111 131 145 143 137 140 140 150 144 121 98 90 85
191 187 191 191 182 171 162 157 151 129 103 105 99 95 97 93 91 87 84 84 83 80 77 78 75 78 81 84 88 88 105 124 132 125 122 134 144 157 168 168 128 108 89
193 191 195 195 192 179 176 170 163 147 132 131 109 103 102 97 107 93 84 81 75 74 72 79 82 80 81 82 83 87 86 106 116 123 130 134 146 182 182 164 146 128 106
198 204 200 197 194 187 181 178 172 159 148 142 126 113 103 101 101 89 97 94 82 74 74 75 81 77 77 81 87 91 89 89 93 113 118 113 123 166 168 167 170 177 148
203 208 176 193 202 198 198 188 180 169 158 151 142 127 116 119 111 94 96 109 97 90 83 84 81 81 77 79 91 92 92 94 97 98 99 89 85 108 151 187 221 148 138
152 170 195 223 232 217 200 189 193 172 163 155 152 142 124 131 132 114 87 110 100 98 89 78 91 89 85 81 88 98 97 93 97 96 89 81 81 109 151 168 159 154 167
192 195 208 218 224 220 205 190 188 182 165 156 149 148 141 133 172 171 137 123 106 102 97 88 81 88 100 80 80 105 106 106 111 102 83 76 71 80 199 262 228 200 175
233 217 227 213 216 224 207 194 186 182 168 156 144 139 139 126 136 186 191 162 122 103 89 80 72 74 83 82 75 104 108 122 125 127 121 89 69 66 59 50 37 248 232
217 235 240 235 221 200 194 189 185 178 169 157 145 133 132 130 126 170 214 205 144 96 102 96 93 94 86 83 70 54 95 216 200 174 156 86 71 78 60 51 45 47 61
168 203 162 172 189 184 179 179 175 178 171 160 156 144 135 131 130 121 118 157 148 124 120 111 111 111 90 80 82 73 78 93 113 115 131 144 192 6 334 346 318 346 23
181 156 137 153 151 165 174 177 178 176 170 163 159 152 151 140 130 136 139 155 149 138 132 114 112 112 94 88 76 84 90 87 87 79 54 346 261 247 268 328 325 317 273
166 152 148 138 134 139 150 159 169 166 172 170 170 163 155 147 141 131 130 143 141 129 125 122 136 163 182 133 83 94 99 119 98 77 24 351 24 6 314 300 304 313 310
172 162 154 140 134 135 137 128 134 144 151 154 151 161 159 158 152 150 147 148 149 145 142 72 145 156 194 237 241 236 200 195 321 314 314 318 336 351 357 352 324 313 328
179 172 163 159 156 151 149 148 137 131 136 137 143 150 154 167 172 173 175 180 167 161 148 83 163 178 178 176 179 195 218 268 310 287 280 299 314 317 327 7 356 343 318
176 165 162 157 152 150 151 149 147 147 149 149 149 152 157 163 163 165 170 175 169 168 177 175 193 209 216 219 217 215 212 247 341 331 300 307 316 311 316 343 343 351 338
163 159 157 152 149 145 139 137 143 146 146 148 158 166 171 172 172 173 173 166 167 181 227 246 231 229 233 247 255 260 269 294 303 313 303 303 310 306 299 310 313 314 314
164 161 162 163 163 160 155 150 151 154 157 160 171 172 178 181 180 183 180 194 208 229 302 257 243 235 244 264 273 265 268 287 290 294 305 302 313 306 299 302 310 299 298
187 191 193 189 194 191 190 191 187 190 190 192 183 187 190 190 182 173 191 226 259 271 278 273 251 238 247 267 274 267 271 285 284 285 289 300 298 292 295 297 293 292 291
215 207 211 222 220 215 220 221 220 225 227 226 219 210 210 221 228 233 246 272 297 300 276 263 260 268 272 269 271 272 279 290 296 296 293 290 290 291 291 295 290 278 282
191 183 190 203 212 219 222 232 240 242 247 251 249 232 222 229 236 255 269 289 295 291 267 250 246 238 228 241 257 272 285 295 304 303 294 290 287 286 284 280 279 276 272
189 196 204 190 188 191 196 193 186 193 214 240 247 239 224 224 236 258 275 259 230 202 170 157 159 163 167 206 294 311 313 312 310 306 304 303 305 307 300 289 281 273 270
195 201 188 184 180 184 182 185 171 173 198 200 197 186 175 190 203 209 173 166 161 148 141 139 133 112 57 9 355 348 339 333 327 326 324 322 319 307 297 297 298 296 288
160 156 147 148 156 165 170 178 197 208 181 168 160 161 163 163 159 155 148 145 136 126 119 108 87 38 1 350 349 344 334 327 327 326 330 330 328 330 328 326 316 311 312